{"data":{"norad_id":60549,"intl_designator":"2024-149CK","name":"ICEYE-X40","alt_names":[],"object_type":"PAYLOAD","status":"ACTIVE","operator":null,"country":"UAE","launch_date":"2024-08-16","launch_site_code":"AFWTR","launch_vehicle":null,"mission":null,"orbit_class":"UNKNOWN","rcs_meters":null,"size_class":null,"mass_kg":null,"dimensions":null,"purposes":[],"wikipedia_slug":null,"has_3d_model":false,"image_url":null,"decayed_at":null,"tle_current":{"epoch":"2026-09-22T16:20:47.935104Z","epoch_age_seconds":100698,"freshness":"FRESH","line1":"1 60549U 24149CK  26265.68111036  .00002478  00000+0  21240-3 0  9993","line2":"2 60549  97.6725 340.6014 0006060 110.8695 249.3177 14.98428451114670","mean_motion":14.98428451,"eccentricity":0.000606,"inclination_deg":97.6725,"raan_deg":340.6014,"arg_perigee_deg":110.8695,"mean_anomaly_deg":249.3177,"bstar":0.0002124,"rev_number":11467,"period_min":96.100684623213,"perigee_km":567.53982361339,"apogee_km":575.96308842208,"semimajor_km":6949.8884560177,"source":"CELESTRAK","updated_at":"2026-09-23T09:00:20.673618Z"}}}